Terug naar catalogus

IRIDIUM 33 DEB

ActiefPO
NORAD 34538·DEBRIS·🇺🇸 United States

Gelanceerd Sep 14, 1997 vanaf Baikonur Cosmodrome

Loading…

Volgende Passages (komende 24 uur)

TLE

VersSource: Space-Track

Epoch: Sep 14, 2026, 11:04 UTC

1 34538U 97051JF  26257.46142653  .00001309  00000-0  37514-3 0  9994
2 34538  86.2718 244.6151 0036478 128.9044  26.1636 14.43892982917333

Volg IRIDIUM 33 DEB in realtime met AllMySat

Download on the App Store